📊 Raw Sensor Data
Showing records 47576 to 47600 of 85,087 total
| ID | Distance (ft) | Battery V | Battery A | Int Temp (°F) | Int Humid (%) | Ext Temp (°F) | Solar V | RSSI | SNR | Time Stamp |
|---|---|---|---|---|---|---|---|---|---|---|
| 37524 | -- | 3.83 | 0 | 92 | 40 | 78 | 5.10 | -72 | 9 | 04/11/2025 02:45 PM |
| 37523 | -- | 3.98 | 0 | 94 | 39 | 82 | 5.10 | -71 | 9 | 04/11/2025 02:30 PM |
| 37522 | -- | 3.83 | 0 | 93 | 38 | 84 | 5.10 | -71 | 9 | 04/11/2025 02:15 PM |
| 37521 | -- | 3.83 | 0 | 92 | 39 | 80 | 5.10 | -71 | 9 | 04/11/2025 02:00 PM |
| 37520 | -- | 3.83 | 0 | 90 | 39 | 80 | 5.10 | -70 | 9 | 04/11/2025 01:45 PM |
| 37519 | -- | 3.83 | 0 | 88 | 39 | 77 | 5.10 | -81 | 9 | 04/11/2025 01:30 PM |
| 37518 | -- | 3.83 | 0 | 87 | 39 | 77 | 5.10 | -79 | 9 | 04/11/2025 01:15 PM |
| 37517 | -- | 3.83 | 0 | 86 | 40 | 77 | 5.10 | -80 | 7 | 04/11/2025 01:00 PM |
| 37516 | -- | 3.83 | 0 | 85 | 40 | 75 | 5.10 | -80 | 8 | 04/11/2025 12:45 PM |
| 37515 | -- | 3.83 | 0 | 85 | 39 | 75 | 5.10 | -79 | 8 | 04/11/2025 12:30 PM |
| 37514 | -- | 3.83 | 0 | 84 | 39 | 75 | 5.10 | -80 | 7 | 04/11/2025 12:16 PM |
| 37513 | -- | 4.03 | 0 | 82 | 39 | 77 | 5.10 | -81 | 8 | 04/11/2025 12:00 PM |
| 37512 | -- | 4.09 | 0 | 79 | 40 | 73 | 5.10 | -81 | 8 | 04/11/2025 11:45 AM |
| 37511 | -- | 3.83 | 0 | 80 | 38 | 75 | 5.10 | -80 | 8 | 04/11/2025 11:30 AM |
| 37510 | -- | 3.87 | 5 | 78 | 39 | 75 | 5.10 | -78 | 8 | 04/11/2025 11:15 AM |
| 37509 | -- | 3.83 | 0 | 76 | 39 | 72 | 5.10 | -78 | 7 | 04/11/2025 11:00 AM |
| 37508 | -- | 3.83 | 0 | 75 | 39 | 73 | 5.10 | -81 | 8 | 04/11/2025 10:45 AM |
| 37507 | -- | 3.83 | 0 | 73 | 39 | 72 | 5.10 | -80 | 8 | 04/11/2025 10:30 AM |
| 37506 | -- | 3.83 | 0 | 70 | 39 | 70 | 5.10 | -85 | 8 | 04/11/2025 10:15 AM |
| 37505 | -- | 3.94 | 0 | 69 | 39 | 68 | 5.10 | -83 | 9 | 04/11/2025 10:00 AM |
| 37504 | -- | 3.83 | 0 | 68 | 39 | 70 | 5.10 | -86 | 8 | 04/11/2025 09:45 AM |
| 37503 | -- | 3.83 | 0 | 67 | 39 | 69 | 5.10 | -84 | 8 | 04/11/2025 09:31 AM |
| 37502 | -- | 3.83 | 0 | 66 | 38 | 66 | 5.10 | -87 | 8 | 04/11/2025 09:15 AM |
| 37501 | -- | 3.90 | 0 | 64 | 38 | 65 | 5.10 | -91 | 8 | 04/11/2025 09:01 AM |
| 37500 | -- | 3.84 | 0 | 62 | 39 | 68 | 5.10 | -82 | 8 | 04/11/2025 08:45 AM |